Location: Unspecified
(0.0000°N, 0.0000°E)
Time: 17:34:20
(UTC+00:00)

CUTE 1.7 + AOD 2 - Pass Details

Date: 23 December 2025
Orbit: 537 x 550 km, 97.8° (Epoch: 19 January)

Event Time Altitude Azimuth Distance (km) Brightness Sun altitude
Exits shadow 03:56:58 10° 191° (S) 1,788 ? -27.8°
Drops below altitude 10° 03:57:00 10° 191° (S) 1,802 ? -27.8°
Sets 03:59:07 0° 191° (S) 2,694 ? -27.3°
